User: anonymous   Login
Location: Newark
(22.3060°N, 114.2134°E)
Time: 05:41:29
(UTC+00:00)
Language:

A-11 Canister half - Orbit

View from above orbital plane
View from above orbital plane
View from above satellite
View from above satellite

Ground track
Ground track

The orbit data is extracted from the following two-line orbital elements,

1 00053U 60009E   21206.93145899 -.00000018  00000-0  65480-3 0  9998
2 00053  47.2774  94.7178 0096978 193.5434 166.2747 12.17256319717718
Epoch (UTC): 25 July 2021 22:21:18
Eccentricity: 0.0096978
inclination: 47.2774°
perigee height: 1527 km
apogee height: 1682 km
right ascension of ascending node: 94.7178°
argument of perigee: 193.5434°
revolutions per day: 12.17256319
mean anomaly at epoch: 166.2747°
orbit number at epoch: 71771

The dashed part of the orbit path shows where the satellite is in the earth's shadow,  

DLR